TimeEDT,TemperatureF,Dew PointF,Humidity,Sea Level PressureIn,VisibilityMPH,Wind Direction,Wind SpeedMPH,Gust SpeedMPH,PrecipitationIn,Events,Conditions,WindDirDegrees,DateUTC
12:15 AM,55.4,53.6,94,30.24,10.0,Calm,Calm,-,N/A,,Clear,0,2013-08-17 04:15:00
12:36 AM,55.4,53.6,94,30.24,10.0,Calm,Calm,-,N/A,,Clear,0,2013-08-17 04:36:00
12:57 AM,55.4,53.6,94,30.24,7.0,Calm,Calm,-,N/A,,Clear,0,2013-08-17 04:57:00
1:15 AM,53.6,51.8,94,30.24,7.0,Calm,Calm,-,N/A,,Clear,0,2013-08-17 05:15:00
1:36 AM,53.6,51.8,94,30.24,10.0,Calm,Calm,-,N/A,,Clear,0,2013-08-17 05:36:00
1:57 AM,53.6,51.8,94,30.23,5.0,Calm,Calm,-,N/A,,Clear,0,2013-08-17 05:57:00
2:15 AM,53.6,51.8,94,30.24,7.0,Calm,Calm,-,N/A,,Clear,0,2013-08-17 06:15:00
2:36 AM,53.6,51.8,94,30.24,5.0,Calm,Calm,-,N/A,,Clear,0,2013-08-17 06:36:00
2:57 AM,53.6,51.8,94,30.24,7.0,Calm,Calm,-,N/A,,Clear,0,2013-08-17 06:57:00
3:15 AM,53.6,51.8,94,30.24,7.0,Calm,Calm,-,N/A,,Clear,0,2013-08-17 07:15:00
3:36 AM,53.6,51.8,94,30.24,7.0,Calm,Calm,-,N/A,,Clear,0,2013-08-17 07:36:00
3:57 AM,53.6,51.8,94,30.24,7.0,Calm,Calm,-,N/A,,Clear,0,2013-08-17 07:57:00
4:15 AM,53.6,51.8,94,30.23,7.0,Calm,Calm,-,N/A,,Clear,0,2013-08-17 08:15:00
4:36 AM,53.6,51.8,94,30.23,7.0,Calm,Calm,-,N/A,,Clear,0,2013-08-17 08:36:00
4:57 AM,53.6,51.8,94,30.23,7.0,Calm,Calm,-,N/A,,Clear,0,2013-08-17 08:57:00
5:15 AM,53.6,51.8,94,30.24,7.0,Calm,Calm,-,N/A,,Clear,0,2013-08-17 09:15:00
5:36 AM,53.6,51.8,94,30.25,7.0,Calm,Calm,-,N/A,,Clear,0,2013-08-17 09:36:00
5:57 AM,53.6,51.8,94,30.26,7.0,Calm,Calm,-,N/A,,Clear,0,2013-08-17 09:57:00
6:15 AM,53.6,51.8,94,30.26,7.0,Calm,Calm,-,N/A,,Clear,0,2013-08-17 10:15:00
6:36 AM,53.6,51.8,94,30.27,4.0,Calm,Calm,-,N/A,,Clear,0,2013-08-17 10:36:00
6:57 AM,53.6,51.8,94,30.27,4.0,Calm,Calm,-,N/A,,Clear,0,2013-08-17 10:57:00
7:15 AM,53.6,53.6,100,30.27,5.0,Calm,Calm,-,N/A,,Clear,0,2013-08-17 11:15:00
7:36 AM,55.4,53.6,94,30.27,7.0,Calm,Calm,-,N/A,,Clear,0,2013-08-17 11:36:00
7:57 AM,57.2,55.4,94,30.27,7.0,Calm,Calm,-,N/A,,Clear,0,2013-08-17 11:57:00
8:15 AM,59.0,55.4,88,30.28,7.0,Calm,Calm,-,N/A,,Clear,0,2013-08-17 12:15:00
8:36 AM,59.0,59.0,100,30.28,10.0,Calm,Calm,-,N/A,,Clear,0,2013-08-17 12:36:00
8:57 AM,60.8,59.0,94,30.28,10.0,Calm,Calm,-,N/A,,Clear,0,2013-08-17 12:57:00
9:18 AM,62.6,59.0,88,30.29,10.0,Calm,Calm,-,N/A,,Clear,0,2013-08-17 13:18:00
9:36 AM,66.2,59.0,78,30.29,10.0,Calm,Calm,-,N/A,,Clear,0,2013-08-17 13:36:00
9:57 AM,69.8,59.0,68,30.29,10.0,ENE,5.8,-,N/A,,Clear,60,2013-08-17 13:57:00
10:15 AM,71.6,59.0,64,30.29,10.0,ENE,3.5,-,N/A,,Clear,60,2013-08-17 14:15:00
10:36 AM,73.4,57.2,57,30.29,10.0,NE,4.6,-,N/A,,Clear,40,2013-08-17 14:36:00
10:57 AM,73.4,55.4,53,30.29,10.0,ENE,6.9,-,N/A,,Clear,70,2013-08-17 14:57:00
11:18 AM,77.0,55.4,47,30.29,10.0,East,9.2,-,N/A,,Clear,90,2013-08-17 15:18:00
11:36 AM,77.0,55.4,47,30.29,10.0,ENE,6.9,-,N/A,,Clear,60,2013-08-17 15:36:00
11:57 AM,77.0,55.4,47,30.29,10.0,East,9.2,-,N/A,,Clear,100,2013-08-17 15:57:00
12:18 PM,77.0,55.4,47,30.28,10.0,East,9.2,-,N/A,,Clear,90,2013-08-17 16:18:00
12:36 PM,77.0,55.4,47,30.28,10.0,East,9.2,16.1,N/A,,Clear,90,2013-08-17 16:36:00
12:57 PM,77.0,53.6,44,30.28,10.0,ESE,8.1,-,N/A,,Clear,120,2013-08-17 16:57:00
1:18 PM,77.0,53.6,44,30.28,10.0,East,8.1,-,N/A,,Clear,100,2013-08-17 17:18:00
1:36 PM,77.0,53.6,44,30.27,10.0,ESE,11.5,-,N/A,,Clear,110,2013-08-17 17:36:00
1:57 PM,77.0,53.6,44,30.27,10.0,ESE,12.7,-,N/A,,Clear,120,2013-08-17 17:57:00
2:18 PM,75.2,53.6,47,30.27,10.0,ESE,6.9,-,N/A,,Clear,120,2013-08-17 18:18:00
2:36 PM,75.2,53.6,47,30.27,10.0,East,10.4,-,N/A,,Clear,100,2013-08-17 18:36:00
2:57 PM,77.0,55.4,47,30.27,10.0,SE,10.4,-,N/A,,Clear,130,2013-08-17 18:57:00
3:18 PM,77.0,55.4,47,30.26,10.0,East,11.5,-,N/A,,Clear,100,2013-08-17 19:18:00
3:36 PM,78.8,55.4,44,30.26,10.0,East,5.8,-,N/A,,Clear,100,2013-08-17 19:36:00
3:57 PM,77.0,55.4,47,30.26,10.0,SE,5.8,-,N/A,,Scattered Clouds,130,2013-08-17 19:57:00
4:18 PM,78.8,55.4,44,30.25,10.0,SE,8.1,-,N/A,,Scattered Clouds,130,2013-08-17 20:18:00
4:36 PM,77.0,53.6,44,30.25,10.0,East,5.8,-,N/A,,Clear,100,2013-08-17 20:36:00
4:57 PM,77.0,55.4,47,30.25,10.0,ESE,8.1,-,N/A,,Scattered Clouds,120,2013-08-17 20:57:00
5:18 PM,75.2,55.4,50,30.25,10.0,East,9.2,-,N/A,,Scattered Clouds,100,2013-08-17 21:18:00
5:39 PM,75.2,53.6,47,30.25,10.0,ESE,9.2,-,N/A,,Scattered Clouds,110,2013-08-17 21:39:00
5:57 PM,75.2,53.6,47,30.25,10.0,ESE,9.2,-,N/A,,Clear,110,2013-08-17 21:57:00
6:18 PM,73.4,53.6,50,30.25,10.0,ESE,6.9,-,N/A,,Clear,120,2013-08-17 22:18:00
6:39 PM,73.4,53.6,50,30.25,10.0,ESE,8.1,-,N/A,,Clear,120,2013-08-17 22:39:00
6:57 PM,73.4,53.6,50,30.25,10.0,ESE,6.9,-,N/A,,Clear,110,2013-08-17 22:57:00
7:18 PM,71.6,53.6,53,30.25,10.0,East,5.8,-,N/A,,Clear,100,2013-08-17 23:18:00
7:39 PM,69.8,57.2,64,30.25,10.0,East,5.8,-,N/A,,Clear,100,2013-08-17 23:39:00
7:57 PM,68.0,59.0,73,30.26,10.0,ESE,4.6,-,N/A,,Clear,110,2013-08-17 23:57:00
8:18 PM,66.2,60.8,83,30.26,10.0,Calm,Calm,-,N/A,,Clear,0,2013-08-18 00:18:00
8:39 PM,66.2,60.8,83,30.26,10.0,Calm,Calm,-,N/A,,Clear,0,2013-08-18 00:39:00
8:57 PM,64.4,60.8,88,30.26,10.0,Calm,Calm,-,N/A,,Clear,0,2013-08-18 00:57:00
9:18 PM,64.4,59.0,83,30.27,10.0,Calm,Calm,-,N/A,,Clear,0,2013-08-18 01:18:00
9:39 PM,64.4,59.0,83,30.28,10.0,Calm,Calm,-,N/A,,Clear,0,2013-08-18 01:39:00
9:57 PM,66.2,59.0,78,30.27,10.0,East,4.6,-,N/A,,Clear,100,2013-08-18 01:57:00
10:18 PM,66.2,59.0,78,30.27,10.0,East,5.8,-,N/A,,Clear,100,2013-08-18 02:18:00
10:39 PM,68.0,59.0,73,30.27,10.0,ESE,5.8,-,N/A,,Scattered Clouds,110,2013-08-18 02:39:00
10:57 PM,66.2,60.8,83,30.27,10.0,ESE,5.8,-,N/A,,Scattered Clouds,110,2013-08-18 02:57:00
11:18 PM,68.0,60.8,78,30.27,10.0,ESE,5.8,-,N/A,,Clear,110,2013-08-18 03:18:00
11:39 PM,68.0,60.8,78,30.26,10.0,East,4.6,-,N/A,,Clear,80,2013-08-18 03:39:00
11:57 PM,66.2,60.8,83,30.26,10.0,East,4.6,-,N/A,,Clear,90,2013-08-18 03:57:00